owner,sensor,date,latitude,longitude,vertical_datum,sea_water_practical_salinity,qcFlag 
DISL,ioos:station:DISL:MHPA:1,2013-02-01T00:00:00Z,30.6671,-87.9365,3.72,0.07,1111122 
DISL,ioos:station:DISL:MHPA:1,2013-02-01T00:30:00Z,30.6671,-87.9365,3.687,0.07,1111122 
DISL,ioos:station:DISL:MHPA:1,2013-02-01T01:00:00Z,30.6671,-87.9365,3.635,0.07,1111122 
DISL,ioos:station:DISL:MHPA:1,2013-02-01T01:30:00Z,30.6671,-87.9365,3.569,0.07,1111122 
DISL,ioos:station:DISL:MHPA:1,2013-02-01T02:00:00Z,30.6671,-87.9365,3.476,0.07,1111122 
DISL,ioos:station:DISL:MHPA:1,2013-02-01T02:30:00Z,30.6671,-87.9365,3.391,0.07,1111122 
DISL,ioos:station:DISL:MHPA:1,2013-02-01T03:00:00Z,30.6671,-87.9365,3.366,0.07,1111122 
DISL,ioos:station:DISL:MHPA:1,2013-02-01T03:30:00Z,30.6671,-87.9365,3.327,0.07,1111122 
DISL,ioos:station:DISL:MHPA:1,2013-02-01T04:00:00Z,30.6671,-87.9365,3.28,0.07,1111122 
DISL,ioos:station:DISL:MHPA:1,2013-02-01T04:30:00Z,30.6671,-87.9365,3.256,0.06,1111122 
DISL,ioos:station:DISL:MHPA:1,2013-02-01T05:00:00Z,30.6671,-87.9365,3.255,0.06,1111122 
DISL,ioos:station:DISL:MHPA:1,2013-02-01T05:30:00Z,30.6671,-87.9365,3.207,0.06,1111122 
DISL,ioos:station:DISL:MHPA:1,2013-02-01T06:00:00Z,30.6671,-87.9365,3.179,0.06,1111122 
DISL,ioos:station:DISL:MHPA:1,2013-02-01T06:30:00Z,30.6671,-87.9365,3.206,0.07,1111122 
DISL,ioos:station:DISL:MHPA:1,2013-02-01T07:00:00Z,30.6671,-87.9365,3.221,0.06,1111122 
DISL,ioos:station:DISL:MHPA:1,2013-02-01T07:30:00Z,30.6671,-87.9365,3.204,0.06,1111122 
DISL,ioos:station:DISL:MHPA:1,2013-02-01T08:00:00Z,30.6671,-87.9365,3.208,0.07,1111122 
DISL,ioos:station:DISL:MHPA:1,2013-02-01T08:30:00Z,30.6671,-87.9365,3.191,0.07,1111122 
DISL,ioos:station:DISL:MHPA:1,2013-02-01T09:00:00Z,30.6671,-87.9365,3.153,0.07,1111122 
DISL,ioos:station:DISL:MHPA:1,2013-02-01T09:30:00Z,30.6671,-87.9365,3.082,0.07,1111122 
DISL,ioos:station:DISL:MHPA:1,2013-02-01T10:00:00Z,30.6671,-87.9365,3.039,0.06,1111122 
DISL,ioos:station:DISL:MHPA:1,2013-02-01T10:30:00Z,30.6671,-87.9365,3.022,0.07,1111122 
DISL,ioos:station:DISL:MHPA:1,2013-02-01T11:00:00Z,30.6671,-87.9365,3.002,0.07,1111122 
DISL,ioos:station:DISL:MHPA:1,2013-02-01T11:30:00Z,30.6671,-87.9365,2.965,0.07,1111122 
DISL,ioos:station:DISL:MHPA:1,2013-02-01T12:00:00Z,30.6671,-87.9365,2.962,0.07,1111122 
DISL,ioos:station:DISL:MHPA:1,2013-02-01T12:30:00Z,30.6671,-87.9365,2.942,0.07,1111122 
DISL,ioos:station:DISL:MHPA:1,2013-02-01T13:00:00Z,30.6671,-87.9365,2.895,0.07,1111122 
DISL,ioos:station:DISL:MHPA:1,2013-02-01T13:30:00Z,30.6671,-87.9365,2.84,0.07,1111122 
DISL,ioos:station:DISL:MHPA:1,2013-02-01T14:00:00Z,30.6671,-87.9365,2.788,0.07,1111122 
DISL,ioos:station:DISL:MHPA:1,2013-02-01T14:30:00Z,30.6671,-87.9365,2.737,0.07,1111122 
DISL,ioos:station:DISL:MHPA:1,2013-02-01T15:00:00Z,30.6671,-87.9365,2.693,0.07,1111122 
DISL,ioos:station:DISL:MHPA:1,2013-02-01T15:30:00Z,30.6671,-87.9365,2.65,0.07,1111122 
DISL,ioos:station:DISL:MHPA:1,2013-02-01T16:00:00Z,30.6671,-87.9365,2.614,0.07,1111122 
DISL,ioos:station:DISL:MHPA:1,2013-02-01T16:30:00Z,30.6671,-87.9365,2.591,0.07,1111122 
DISL,ioos:station:DISL:MHPA:1,2013-02-01T17:00:00Z,30.6671,-87.9365,2.579,0.07,1111122 
DISL,ioos:station:DISL:MHPA:1,2013-02-01T17:30:00Z,30.6671,-87.9365,2.554,0.07,1111122 
DISL,ioos:station:DISL:MHPA:1,2013-02-01T18:00:00Z,30.6671,-87.9365,2.533,0.07,1111122 
DISL,ioos:station:DISL:MHPA:1,2013-02-01T18:30:00Z,30.6671,-87.9365,2.52,0.07,1111122 
DISL,ioos:station:DISL:MHPA:1,2013-02-01T19:00:00Z,30.6671,-87.9365,2.504,0.07,1111122 
DISL,ioos:station:DISL:MHPA:1,2013-02-01T19:30:00Z,30.6671,-87.9365,2.502,0.07,1111122 
DISL,ioos:station:DISL:MHPA:1,2013-02-01T20:00:00Z,30.6671,-87.9365,2.528,0.07,1111122 
DISL,ioos:station:DISL:MHPA:1,2013-02-01T20:30:00Z,30.6671,-87.9365,2.579,0.07,1111122 
DISL,ioos:station:DISL:MHPA:1,2013-02-01T21:00:00Z,30.6671,-87.9365,2.64,0.07,1111122 
DISL,ioos:station:DISL:MHPA:1,2013-02-01T21:30:00Z,30.6671,-87.9365,2.736,0.07,1111122 
DISL,ioos:station:DISL:MHPA:1,2013-02-01T22:00:00Z,30.6671,-87.9365,2.867,0.07,1111122 
DISL,ioos:station:DISL:MHPA:1,2013-02-01T22:30:00Z,30.6671,-87.9365,2.969,0.07,1111122 
DISL,ioos:station:DISL:MHPA:1,2013-02-01T23:00:00Z,30.6671,-87.9365,3.018,0.07,1111122 
DISL,ioos:station:DISL:MHPA:1,2013-02-01T23:30:00Z,30.6671,-87.9365,3.052,0.07,1111122 
DISL,ioos:station:DISL:MHPA:1,2013-02-02T00:00:00Z,30.6671,-87.9365,3.119,0.07,1111122 
DISL,ioos:station:DISL:MHPA:1,2013-02-02T00:30:00Z,30.6671,-87.9365,3.134,0.07,1111122 
DISL,ioos:station:DISL:MHPA:1,2013-02-02T01:00:00Z,30.6671,-87.9365,3.12,0.07,1111122 
DISL,ioos:station:DISL:MHPA:1,2013-02-02T01:30:00Z,30.6671,-87.9365,3.112,0.07,1111122 
DISL,ioos:station:DISL:MHPA:1,2013-02-02T02:00:00Z,30.6671,-87.9365,3.084,0.07,1111122 
DISL,ioos:station:DISL:MHPA:1,2013-02-02T02:30:00Z,30.6671,-87.9365,3.04,0.07,1111122 
DISL,ioos:station:DISL:MHPA:1,2013-02-02T03:00:00Z,30.6671,-87.9365,2.983,0.07,1111122 
DISL,ioos:station:DISL:MHPA:1,2013-02-02T03:30:00Z,30.6671,-87.9365,2.932,0.07,1111122 
DISL,ioos:station:DISL:MHPA:1,2013-02-02T04:00:00Z,30.6671,-87.9365,2.878,0.07,1111122 
DISL,ioos:station:DISL:MHPA:1,2013-02-02T04:30:00Z,30.6671,-87.9365,2.835,0.07,1111122 
DISL,ioos:station:DISL:MHPA:1,2013-02-02T05:00:00Z,30.6671,-87.9365,2.808,0.07,1111122 
DISL,ioos:station:DISL:MHPA:1,2013-02-02T05:30:00Z,30.6671,-87.9365,2.782,0.07,1111122 
DISL,ioos:station:DISL:MHPA:1,2013-02-02T06:00:00Z,30.6671,-87.9365,2.747,0.07,1111122 
DISL,ioos:station:DISL:MHPA:1,2013-02-02T06:30:00Z,30.6671,-87.9365,2.72,0.07,1111122 
DISL,ioos:station:DISL:MHPA:1,2013-02-02T07:00:00Z,30.6671,-87.9365,2.698,0.07,1111122 
DISL,ioos:station:DISL:MHPA:1,2013-02-02T07:30:00Z,30.6671,-87.9365,2.672,0.07,1111122 
DISL,ioos:station:DISL:MHPA:1,2013-02-02T08:00:00Z,30.6671,-87.9365,2.668,0.07,1111122 
DISL,ioos:station:DISL:MHPA:1,2013-02-02T08:30:00Z,30.6671,-87.9365,2.662,0.07,1111122 
DISL,ioos:station:DISL:MHPA:1,2013-02-02T09:00:00Z,30.6671,-87.9365,2.645,0.07,1111122 
DISL,ioos:station:DISL:MHPA:1,2013-02-02T09:30:00Z,30.6671,-87.9365,2.628,0.07,1111122 
DISL,ioos:station:DISL:MHPA:1,2013-02-02T10:00:00Z,30.6671,-87.9365,2.631,0.07,1111122 
DISL,ioos:station:DISL:MHPA:1,2013-02-02T10:30:00Z,30.6671,-87.9365,2.654,0.07,1111122 
DISL,ioos:station:DISL:MHPA:1,2013-02-02T11:00:00Z,30.6671,-87.9365,2.686,0.07,1111122 
DISL,ioos:station:DISL:MHPA:1,2013-02-02T11:30:00Z,30.6671,-87.9365,2.711,0.07,1111122 
DISL,ioos:station:DISL:MHPA:1,2013-02-02T12:00:00Z,30.6671,-87.9365,2.718,0.07,1111122 
DISL,ioos:station:DISL:MHPA:1,2013-02-02T12:30:00Z,30.6671,-87.9365,2.725,0.07,1111122 
DISL,ioos:station:DISL:MHPA:1,2013-02-02T13:00:00Z,30.6671,-87.9365,2.779,0.07,1111122 
DISL,ioos:station:DISL:MHPA:1,2013-02-02T13:30:00Z,30.6671,-87.9365,2.816,0.07,1111122 
DISL,ioos:station:DISL:MHPA:1,2013-02-02T14:00:00Z,30.6671,-87.9365,2.841,0.07,1111122 
DISL,ioos:station:DISL:MHPA:1,2013-02-02T14:30:00Z,30.6671,-87.9365,2.857,0.07,1111122 
DISL,ioos:station:DISL:MHPA:1,2013-02-02T15:00:00Z,30.6671,-87.9365,2.893,0.07,1111122 
DISL,ioos:station:DISL:MHPA:1,2013-02-02T15:30:00Z,30.6671,-87.9365,2.929,0.07,1111122 
DISL,ioos:station:DISL:MHPA:1,2013-02-02T16:00:00Z,30.6671,-87.9365,3.026,0.07,1111122 
DISL,ioos:station:DISL:MHPA:1,2013-02-02T16:30:00Z,30.6671,-87.9365,3.129,0.07,1111122 
DISL,ioos:station:DISL:MHPA:1,2013-02-02T17:00:00Z,30.6671,-87.9365,3.196,0.07,1111122 
DISL,ioos:station:DISL:MHPA:1,2013-02-02T17:30:00Z,30.6671,-87.9365,3.278,0.07,1111122 
DISL,ioos:station:DISL:MHPA:1,2013-02-02T18:00:00Z,30.6671,-87.9365,3.401,0.07,1111122 
DISL,ioos:station:DISL:MHPA:1,2013-02-02T18:30:00Z,30.6671,-87.9365,3.538,0.07,1111122 
DISL,ioos:station:DISL:MHPA:1,2013-02-02T19:00:00Z,30.6671,-87.9365,3.729,0.07,1111122 
DISL,ioos:station:DISL:MHPA:1,2013-02-02T19:30:00Z,30.6671,-87.9365,3.908,0.07,1111122 
DISL,ioos:station:DISL:MHPA:1,2013-02-02T20:00:00Z,30.6671,-87.9365,4.047,0.07,1111122 
DISL,ioos:station:DISL:MHPA:1,2013-02-02T20:30:00Z,30.6671,-87.9365,4.125,0.07,1111122 
DISL,ioos:station:DISL:MHPA:1,2013-02-02T21:00:00Z,30.6671,-87.9365,4.209,0.07,1111122 
DISL,ioos:station:DISL:MHPA:1,2013-02-02T21:30:00Z,30.6671,-87.9365,4.282,0.07,1111122 
DISL,ioos:station:DISL:MHPA:1,2013-02-02T22:00:00Z,30.6671,-87.9365,4.363,0.07,1111122 
DISL,ioos:station:DISL:MHPA:1,2013-02-02T22:30:00Z,30.6671,-87.9365,4.38,0.07,1111122 
DISL,ioos:station:DISL:MHPA:1,2013-02-02T23:00:00Z,30.6671,-87.9365,4.379,0.07,1111122 
DISL,ioos:station:DISL:MHPA:1,2013-02-02T23:30:00Z,30.6671,-87.9365,4.354,0.07,1111122 
DISL,ioos:station:DISL:MHPA:1,2013-02-03T00:00:00Z,30.6671,-87.9365,4.291,0.07,1111122 
DISL,ioos:station:DISL:MHPA:1,2013-02-03T00:30:00Z,30.6671,-87.9365,4.242,0.07,1111122 
DISL,ioos:station:DISL:MHPA:1,2013-02-03T01:00:00Z,30.6671,-87.9365,4.142,0.07,1111122 
DISL,ioos:station:DISL:MHPA:1,2013-02-03T01:30:00Z,30.6671,-87.9365,4.015,0.07,1111122 
DISL,ioos:station:DISL:MHPA:1,2013-02-03T02:00:00Z,30.6671,-87.9365,3.906,0.07,1111122 
DISL,ioos:station:DISL:MHPA:1,2013-02-03T02:30:00Z,30.6671,-87.9365,3.768,0.07,1111122 
DISL,ioos:station:DISL:MHPA:1,2013-02-03T03:00:00Z,30.6671,-87.9365,3.65,0.07,1111122 
DISL,ioos:station:DISL:MHPA:1,2013-02-03T03:30:00Z,30.6671,-87.9365,3.549,0.07,1111122 
DISL,ioos:station:DISL:MHPA:1,2013-02-03T04:00:00Z,30.6671,-87.9365,3.449,0.07,1111122 
DISL,ioos:station:DISL:MHPA:1,2013-02-03T04:30:00Z,30.6671,-87.9365,3.355,0.07,1111122 
DISL,ioos:station:DISL:MHPA:1,2013-02-03T05:00:00Z,30.6671,-87.9365,3.265,0.07,1111122 
DISL,ioos:station:DISL:MHPA:1,2013-02-03T05:30:00Z,30.6671,-87.9365,3.188,0.07,1111122 
DISL,ioos:station:DISL:MHPA:1,2013-02-03T06:00:00Z,30.6671,-87.9365,3.122,0.07,1111122 
DISL,ioos:station:DISL:MHPA:1,2013-02-03T06:30:00Z,30.6671,-87.9365,3.055,0.07,1111122 
DISL,ioos:station:DISL:MHPA:1,2013-02-03T07:00:00Z,30.6671,-87.9365,2.992,0.07,1111122 
DISL,ioos:station:DISL:MHPA:1,2013-02-03T07:30:00Z,30.6671,-87.9365,2.944,0.07,1111122 
DISL,ioos:station:DISL:MHPA:1,2013-02-03T08:00:00Z,30.6671,-87.9365,2.884,0.07,1111122 
DISL,ioos:station:DISL:MHPA:1,2013-02-03T08:30:00Z,30.6671,-87.9365,2.826,0.07,1111122 
DISL,ioos:station:DISL:MHPA:1,2013-02-03T09:00:00Z,30.6671,-87.9365,2.783,0.07,1111122 
DISL,ioos:station:DISL:MHPA:1,2013-02-03T09:30:00Z,30.6671,-87.9365,2.732,0.07,1111122 
DISL,ioos:station:DISL:MHPA:1,2013-02-03T10:00:00Z,30.6671,-87.9365,2.683,0.07,1111122 
DISL,ioos:station:DISL:MHPA:1,2013-02-03T10:30:00Z,30.6671,-87.9365,2.656,0.07,1111122 
DISL,ioos:station:DISL:MHPA:1,2013-02-03T11:00:00Z,30.6671,-87.9365,2.65,0.07,1111122 
DISL,ioos:station:DISL:MHPA:1,2013-02-03T11:30:00Z,30.6671,-87.9365,2.662,0.07,1111122 
DISL,ioos:station:DISL:MHPA:1,2013-02-03T12:00:00Z,30.6671,-87.9365,2.657,0.07,1111122 
DISL,ioos:station:DISL:MHPA:1,2013-02-03T12:30:00Z,30.6671,-87.9365,2.632,0.07,1111122 
DISL,ioos:station:DISL:MHPA:1,2013-02-03T13:00:00Z,30.6671,-87.9365,2.619,0.07,1111122 
DISL,ioos:station:DISL:MHPA:1,2013-02-03T13:30:00Z,30.6671,-87.9365,2.618,0.07,1111122 
DISL,ioos:station:DISL:MHPA:1,2013-02-03T14:00:00Z,30.6671,-87.9365,2.6,0.07,1111122 
DISL,ioos:station:DISL:MHPA:1,2013-02-03T14:30:00Z,30.6671,-87.9365,2.586,0.07,1111122 
DISL,ioos:station:DISL:MHPA:1,2013-02-03T15:00:00Z,30.6671,-87.9365,2.596,0.07,1111122 
DISL,ioos:station:DISL:MHPA:1,2013-02-03T15:30:00Z,30.6671,-87.9365,2.662,0.07,1111122 
DISL,ioos:station:DISL:MHPA:1,2013-02-03T16:00:00Z,30.6671,-87.9365,2.784,0.07,1111122 
DISL,ioos:station:DISL:MHPA:1,2013-02-03T16:30:00Z,30.6671,-87.9365,2.945,0.07,1111122 
DISL,ioos:station:DISL:MHPA:1,2013-02-03T17:00:00Z,30.6671,-87.9365,3.123,0.07,1111122 
DISL,ioos:station:DISL:MHPA:1,2013-02-03T17:30:00Z,30.6671,-87.9365,3.263,0.07,1111122 
DISL,ioos:station:DISL:MHPA:1,2013-02-03T18:00:00Z,30.6671,-87.9365,3.428,0.07,1111122 
DISL,ioos:station:DISL:MHPA:1,2013-02-03T18:30:00Z,30.6671,-87.9365,3.541,0.07,1111122 
DISL,ioos:station:DISL:MHPA:1,2013-02-03T19:00:00Z,30.6671,-87.9365,3.667,0.07,1111122 
DISL,ioos:station:DISL:MHPA:1,2013-02-03T19:30:00Z,30.6671,-87.9365,3.772,0.07,1111122 
DISL,ioos:station:DISL:MHPA:1,2013-02-03T20:00:00Z,30.6671,-87.9365,3.908,0.07,1111122 
DISL,ioos:station:DISL:MHPA:1,2013-02-03T20:30:00Z,30.6671,-87.9365,4.078,0.07,1111122 
DISL,ioos:station:DISL:MHPA:1,2013-02-03T21:00:00Z,30.6671,-87.9365,4.201,0.07,1111122 
DISL,ioos:station:DISL:MHPA:1,2013-02-03T21:30:00Z,30.6671,-87.9365,4.317,0.07,1111122 
DISL,ioos:station:DISL:MHPA:1,2013-02-03T22:00:00Z,30.6671,-87.9365,4.362,0.07,1111122 
DISL,ioos:station:DISL:MHPA:1,2013-02-03T22:30:00Z,30.6671,-87.9365,4.383,0.07,1111122 
DISL,ioos:station:DISL:MHPA:1,2013-02-03T23:00:00Z,30.6671,-87.9365,4.38,0.07,1111122 
DISL,ioos:station:DISL:MHPA:1,2013-02-03T23:30:00Z,30.6671,-87.9365,4.369,0.07,1111122 
DISL,ioos:station:DISL:MHPA:1,2013-02-04T00:00:00Z,30.6671,-87.9365,4.337,0.07,1111122 
DISL,ioos:station:DISL:MHPA:1,2013-02-04T00:30:00Z,30.6671,-87.9365,4.287,0.07,1111122 
DISL,ioos:station:DISL:MHPA:1,2013-02-04T01:00:00Z,30.6671,-87.9365,4.169,0.07,1111122 
DISL,ioos:station:DISL:MHPA:1,2013-02-04T01:30:00Z,30.6671,-87.9365,4.098,0.07,1111122 
DISL,ioos:station:DISL:MHPA:1,2013-02-04T02:00:00Z,30.6671,-87.9365,4.035,0.07,1111122 
DISL,ioos:station:DISL:MHPA:1,2013-02-04T02:30:00Z,30.6671,-87.9365,3.922,0.07,1111122 
DISL,ioos:station:DISL:MHPA:1,2013-02-04T03:00:00Z,30.6671,-87.9365,3.819,0.07,1111122 
DISL,ioos:station:DISL:MHPA:1,2013-02-04T03:30:00Z,30.6671,-87.9365,3.703,0.07,1111122 
DISL,ioos:station:DISL:MHPA:1,2013-02-04T04:00:00Z,30.6671,-87.9365,3.595,0.07,1111122 
DISL,ioos:station:DISL:MHPA:1,2013-02-04T04:30:00Z,30.6671,-87.9365,3.487,0.07,1111122 
DISL,ioos:station:DISL:MHPA:1,2013-02-04T05:00:00Z,30.6671,-87.9365,3.381,0.07,1111122 
DISL,ioos:station:DISL:MHPA:1,2013-02-04T05:30:00Z,30.6671,-87.9365,3.279,0.07,1111122 
DISL,ioos:station:DISL:MHPA:1,2013-02-04T06:00:00Z,30.6671,-87.9365,3.195,0.07,1111122 
DISL,ioos:station:DISL:MHPA:1,2013-02-04T06:30:00Z,30.6671,-87.9365,3.105,0.07,1111122 
DISL,ioos:station:DISL:MHPA:1,2013-02-04T07:00:00Z,30.6671,-87.9365,3.012,0.07,1111122 
DISL,ioos:station:DISL:MHPA:1,2013-02-04T07:30:00Z,30.6671,-87.9365,2.926,0.07,1111122 
DISL,ioos:station:DISL:MHPA:1,2013-02-04T08:00:00Z,30.6671,-87.9365,2.854,0.07,1111122 
DISL,ioos:station:DISL:MHPA:1,2013-02-04T08:30:00Z,30.6671,-87.9365,2.789,0.07,1111122 
DISL,ioos:station:DISL:MHPA:1,2013-02-04T09:00:00Z,30.6671,-87.9365,2.734,0.07,1111122 
DISL,ioos:station:DISL:MHPA:1,2013-02-04T09:30:00Z,30.6671,-87.9365,2.692,0.07,1111122 
DISL,ioos:station:DISL:MHPA:1,2013-02-04T10:00:00Z,30.6671,-87.9365,2.656,0.07,1111122 
DISL,ioos:station:DISL:MHPA:1,2013-02-04T10:30:00Z,30.6671,-87.9365,2.626,0.07,1111122 
DISL,ioos:station:DISL:MHPA:1,2013-02-04T11:00:00Z,30.6671,-87.9365,2.595,0.07,1111122 
DISL,ioos:station:DISL:MHPA:1,2013-02-04T11:30:00Z,30.6671,-87.9365,2.567,0.07,1111122 
DISL,ioos:station:DISL:MHPA:1,2013-02-04T12:00:00Z,30.6671,-87.9365,2.545,0.07,1111122 
DISL,ioos:station:DISL:MHPA:1,2013-02-04T12:30:00Z,30.6671,-87.9365,2.529,0.07,1111122 
DISL,ioos:station:DISL:MHPA:1,2013-02-04T13:00:00Z,30.6671,-87.9365,2.525,0.07,1111122 
DISL,ioos:station:DISL:MHPA:1,2013-02-04T13:30:00Z,30.6671,-87.9365,2.551,0.07,1111122 
DISL,ioos:station:DISL:MHPA:1,2013-02-04T14:00:00Z,30.6671,-87.9365,2.598,0.07,1111122 
DISL,ioos:station:DISL:MHPA:1,2013-02-04T14:30:00Z,30.6671,-87.9365,2.676,0.07,1111122 
DISL,ioos:station:DISL:MHPA:1,2013-02-04T15:00:00Z,30.6671,-87.9365,2.816,0.07,1111122 
DISL,ioos:station:DISL:MHPA:1,2013-02-04T15:30:00Z,30.6671,-87.9365,2.978,0.07,1111122 
DISL,ioos:station:DISL:MHPA:1,2013-02-04T16:00:00Z,30.6671,-87.9365,3.131,0.07,1111122 
DISL,ioos:station:DISL:MHPA:1,2013-02-04T16:30:00Z,30.6671,-87.9365,3.254,0.07,1111122 
DISL,ioos:station:DISL:MHPA:1,2013-02-04T17:00:00Z,30.6671,-87.9365,3.322,0.07,1111122 
DISL,ioos:station:DISL:MHPA:1,2013-02-04T17:30:00Z,30.6671,-87.9365,3.437,0.07,1111122 
DISL,ioos:station:DISL:MHPA:1,2013-02-04T18:00:00Z,30.6671,-87.9365,3.527,0.07,1111122 
DISL,ioos:station:DISL:MHPA:1,2013-02-04T18:30:00Z,30.6671,-87.9365,3.643,0.07,1111122 
DISL,ioos:station:DISL:MHPA:1,2013-02-04T19:00:00Z,30.6671,-87.9365,3.742,0.07,1111122 
DISL,ioos:station:DISL:MHPA:1,2013-02-04T19:30:00Z,30.6671,-87.9365,3.85,0.07,1111122 
DISL,ioos:station:DISL:MHPA:1,2013-02-04T20:00:00Z,30.6671,-87.9365,3.962,0.07,1111122 
DISL,ioos:station:DISL:MHPA:1,2013-02-04T20:30:00Z,30.6671,-87.9365,4.063,0.07,1111122 
DISL,ioos:station:DISL:MHPA:1,2013-02-04T21:00:00Z,30.6671,-87.9365,4.154,0.07,1111122 
DISL,ioos:station:DISL:MHPA:1,2013-02-04T21:30:00Z,30.6671,-87.9365,4.194,0.07,1111122 
DISL,ioos:station:DISL:MHPA:1,2013-02-04T22:00:00Z,30.6671,-87.9365,4.237,0.07,1111122 
DISL,ioos:station:DISL:MHPA:1,2013-02-04T22:30:00Z,30.6671,-87.9365,4.294,0.07,1111122 
DISL,ioos:station:DISL:MHPA:1,2013-02-04T23:00:00Z,30.6671,-87.9365,4.377,0.07,1111122 
DISL,ioos:station:DISL:MHPA:1,2013-02-04T23:30:00Z,30.6671,-87.9365,4.377,0.07,1111122 
DISL,ioos:station:DISL:MHPA:1,2013-02-05T00:00:00Z,30.6671,-87.9365,4.389,0.07,1111122 
DISL,ioos:station:DISL:MHPA:1,2013-02-05T00:30:00Z,30.6671,-87.9365,4.328,0.07,1111122 
DISL,ioos:station:DISL:MHPA:1,2013-02-05T01:00:00Z,30.6671,-87.9365,4.398,0.07,1111122 
DISL,ioos:station:DISL:MHPA:1,2013-02-05T01:30:00Z,30.6671,-87.9365,4.364,0.07,1111122 
DISL,ioos:station:DISL:MHPA:1,2013-02-05T02:00:00Z,30.6671,-87.9365,4.252,0.07,1111122 
DISL,ioos:station:DISL:MHPA:1,2013-02-05T02:30:00Z,30.6671,-87.9365,4.242,0.07,1111122 
DISL,ioos:station:DISL:MHPA:1,2013-02-05T03:00:00Z,30.6671,-87.9365,4.201,0.07,1111122 
DISL,ioos:station:DISL:MHPA:1,2013-02-05T03:30:00Z,30.6671,-87.9365,4.076,0.07,1111122 
DISL,ioos:station:DISL:MHPA:1,2013-02-05T04:00:00Z,30.6671,-87.9365,4.004,0.07,1111122 
DISL,ioos:station:DISL:MHPA:1,2013-02-05T04:30:00Z,30.6671,-87.9365,3.918,0.07,1111122 
DISL,ioos:station:DISL:MHPA:1,2013-02-05T05:00:00Z,30.6671,-87.9365,3.8,0.07,1111122 
DISL,ioos:station:DISL:MHPA:1,2013-02-05T05:30:00Z,30.6671,-87.9365,3.677,0.07,1111122 
DISL,ioos:station:DISL:MHPA:1,2013-02-05T06:00:00Z,30.6671,-87.9365,3.587,0.07,1111122 
DISL,ioos:station:DISL:MHPA:1,2013-02-05T06:30:00Z,30.6671,-87.9365,3.498,0.07,1111122 
DISL,ioos:station:DISL:MHPA:1,2013-02-05T07:00:00Z,30.6671,-87.9365,3.397,0.07,1111122 
DISL,ioos:station:DISL:MHPA:1,2013-02-05T07:30:00Z,30.6671,-87.9365,3.31,0.07,1111122 
DISL,ioos:station:DISL:MHPA:1,2013-02-05T08:00:00Z,30.6671,-87.9365,3.244,0.07,1111122 
DISL,ioos:station:DISL:MHPA:1,2013-02-05T08:30:00Z,30.6671,-87.9365,3.181,0.07,1111122 
DISL,ioos:station:DISL:MHPA:1,2013-02-05T09:00:00Z,30.6671,-87.9365,3.143,0.07,1111122 
DISL,ioos:station:DISL:MHPA:1,2013-02-05T09:30:00Z,30.6671,-87.9365,3.098,0.07,1111122 
DISL,ioos:station:DISL:MHPA:1,2013-02-05T10:00:00Z,30.6671,-87.9365,3.026,0.07,1111122 
DISL,ioos:station:DISL:MHPA:1,2013-02-05T10:30:00Z,30.6671,-87.9365,2.977,0.07,1111122 
DISL,ioos:station:DISL:MHPA:1,2013-02-05T11:00:00Z,30.6671,-87.9365,2.901,0.07,1111122 
DISL,ioos:station:DISL:MHPA:1,2013-02-05T11:30:00Z,30.6671,-87.9365,2.832,0.07,1111122 
DISL,ioos:station:DISL:MHPA:1,2013-02-05T12:00:00Z,30.6671,-87.9365,2.768,0.07,1111122 
DISL,ioos:station:DISL:MHPA:1,2013-02-05T12:30:00Z,30.6671,-87.9365,2.706,0.07,1111122 
DISL,ioos:station:DISL:MHPA:1,2013-02-05T13:00:00Z,30.6671,-87.9365,2.707,0.07,1111122 
DISL,ioos:station:DISL:MHPA:1,2013-02-05T13:30:00Z,30.6671,-87.9365,2.746,0.07,1111122 
DISL,ioos:station:DISL:MHPA:1,2013-02-05T14:00:00Z,30.6671,-87.9365,2.809,0.07,1111122 
DISL,ioos:station:DISL:MHPA:1,2013-02-05T14:30:00Z,30.6671,-87.9365,2.856,0.07,1111122 
DISL,ioos:station:DISL:MHPA:1,2013-02-05T15:00:00Z,30.6671,-87.9365,2.88,0.07,1111122 
DISL,ioos:station:DISL:MHPA:1,2013-02-05T15:30:00Z,30.6671,-87.9365,3.015,0.07,1111122 
DISL,ioos:station:DISL:MHPA:1,2013-02-05T16:00:00Z,30.6671,-87.9365,3.236,0.07,1111122 
DISL,ioos:station:DISL:MHPA:1,2013-02-05T16:30:00Z,30.6671,-87.9365,3.348,0.07,1111122 
DISL,ioos:station:DISL:MHPA:1,2013-02-05T17:00:00Z,30.6671,-87.9365,3.585,0.07,1111122 
DISL,ioos:station:DISL:MHPA:1,2013-02-05T17:30:00Z,30.6671,-87.9365,3.772,0.07,1111122 
DISL,ioos:station:DISL:MHPA:1,2013-02-05T18:00:00Z,30.6671,-87.9365,3.872,0.07,1111122 
DISL,ioos:station:DISL:MHPA:1,2013-02-05T18:30:00Z,30.6671,-87.9365,3.914,0.07,1111122 
DISL,ioos:station:DISL:MHPA:1,2013-02-05T19:00:00Z,30.6671,-87.9365,4.046,0.07,1111122 
DISL,ioos:station:DISL:MHPA:1,2013-02-05T19:30:00Z,30.6671,-87.9365,4.085,0.07,1111122 
DISL,ioos:station:DISL:MHPA:1,2013-02-05T20:00:00Z,30.6671,-87.9365,4.132,0.07,1111122 
DISL,ioos:station:DISL:MHPA:1,2013-02-05T20:30:00Z,30.6671,-87.9365,4.269,0.07,1111122 
DISL,ioos:station:DISL:MHPA:1,2013-02-05T21:00:00Z,30.6671,-87.9365,4.365,0.07,1111122 
DISL,ioos:station:DISL:MHPA:1,2013-02-05T21:30:00Z,30.6671,-87.9365,4.453,0.07,1111122 
DISL,ioos:station:DISL:MHPA:1,2013-02-05T22:00:00Z,30.6671,-87.9365,4.577,0.07,1111122 
DISL,ioos:station:DISL:MHPA:1,2013-02-05T22:30:00Z,30.6671,-87.9365,4.708,0.07,1111122 
DISL,ioos:station:DISL:MHPA:1,2013-02-05T23:00:00Z,30.6671,-87.9365,4.758,0.07,1111122 
DISL,ioos:station:DISL:MHPA:1,2013-02-05T23:30:00Z,30.6671,-87.9365,4.817,0.07,1111122 
DISL,ioos:station:DISL:MHPA:1,2013-02-06T00:00:00Z,30.6671,-87.9365,4.864,0.07,1111122 
DISL,ioos:station:DISL:MHPA:1,2013-02-06T00:30:00Z,30.6671,-87.9365,4.871,0.07,1111122 
DISL,ioos:station:DISL:MHPA:1,2013-02-06T01:00:00Z,30.6671,-87.9365,4.874,0.06,1111122 
DISL,ioos:station:DISL:MHPA:1,2013-02-06T01:30:00Z,30.6671,-87.9365,4.838,0.07,1111122 
DISL,ioos:station:DISL:MHPA:1,2013-02-06T02:00:00Z,30.6671,-87.9365,4.809,0.07,1111122 
DISL,ioos:station:DISL:MHPA:1,2013-02-06T02:30:00Z,30.6671,-87.9365,4.769,0.07,1111122 
DISL,ioos:station:DISL:MHPA:1,2013-02-06T03:00:00Z,30.6671,-87.9365,4.689,0.07,1111122 
DISL,ioos:station:DISL:MHPA:1,2013-02-06T03:30:00Z,30.6671,-87.9365,4.636,0.07,1111122 
DISL,ioos:station:DISL:MHPA:1,2013-02-06T04:00:00Z,30.6671,-87.9365,4.543,0.07,1111122 
DISL,ioos:station:DISL:MHPA:1,2013-02-06T04:30:00Z,30.6671,-87.9365,4.434,0.07,1111122 
DISL,ioos:station:DISL:MHPA:1,2013-02-06T05:00:00Z,30.6671,-87.9365,4.33,0.07,1111122 
DISL,ioos:station:DISL:MHPA:1,2013-02-06T05:30:00Z,30.6671,-87.9365,4.198,0.07,1111122 
DISL,ioos:station:DISL:MHPA:1,2013-02-06T06:00:00Z,30.6671,-87.9365,4.064,0.07,1111122 
DISL,ioos:station:DISL:MHPA:1,2013-02-06T06:30:00Z,30.6671,-87.9365,3.962,0.07,1111122 
DISL,ioos:station:DISL:MHPA:1,2013-02-06T07:00:00Z,30.6671,-87.9365,3.827,0.07,1111122 
DISL,ioos:station:DISL:MHPA:1,2013-02-06T07:30:00Z,30.6671,-87.9365,3.699,0.07,1111122 
DISL,ioos:station:DISL:MHPA:1,2013-02-06T08:00:00Z,30.6671,-87.9365,3.599,0.07,1111122 
DISL,ioos:station:DISL:MHPA:1,2013-02-06T08:30:00Z,30.6671,-87.9365,3.502,0.07,1111122 
DISL,ioos:station:DISL:MHPA:1,2013-02-06T09:00:00Z,30.6671,-87.9365,3.412,0.07,1111122 
DISL,ioos:station:DISL:MHPA:1,2013-02-06T09:30:00Z,30.6671,-87.9365,3.327,0.07,1111122 
DISL,ioos:station:DISL:MHPA:1,2013-02-06T10:00:00Z,30.6671,-87.9365,3.259,0.07,1111122 
DISL,ioos:station:DISL:MHPA:1,2013-02-06T10:30:00Z,30.6671,-87.9365,3.188,0.07,1111122 
DISL,ioos:station:DISL:MHPA:1,2013-02-06T11:00:00Z,30.6671,-87.9365,3.138,0.07,1111122 
DISL,ioos:station:DISL:MHPA:1,2013-02-06T11:30:00Z,30.6671,-87.9365,3.095,0.07,1111122 
DISL,ioos:station:DISL:MHPA:1,2013-02-06T12:00:00Z,30.6671,-87.9365,3.049,0.07,1111122 
DISL,ioos:station:DISL:MHPA:1,2013-02-06T12:30:00Z,30.6671,-87.9365,3.003,0.07,1111122 
DISL,ioos:station:DISL:MHPA:1,2013-02-06T13:00:00Z,30.6671,-87.9365,2.969,0.07,1111122 
DISL,ioos:station:DISL:MHPA:1,2013-02-06T13:30:00Z,30.6671,-87.9365,2.922,0.07,1111122 
DISL,ioos:station:DISL:MHPA:1,2013-02-06T14:00:00Z,30.6671,-87.9365,2.87,0.07,1111122 
DISL,ioos:station:DISL:MHPA:1,2013-02-06T14:30:00Z,30.6671,-87.9365,2.886,0.07,1111122 
DISL,ioos:station:DISL:MHPA:1,2013-02-06T15:00:00Z,30.6671,-87.9365,2.967,0.07,1111122 